Notices

What's New in latest Release from April 7th, 2021:

- Updated Glossary, including Speed of Maximum Gust, and Total Hourly Precipitation

- Updated national and regional climate services offices contacts and prices information

- Addition of station inventory lists for 1981-2010, 1971-2000, and 1961-1990 Normals.

If you haven't already, please take our survey and provide feedback about our website: https://eccc.sondage-survey.ca/f/LanguageSelection.aspx?s=442ca660-fcf1-47c0-95a9-59707d6fd709

Hourly Data Report for November 18, 2019

SAINT JOHN A
NEW BRUNSWICK
Current Station Operator: NAVCAN

45°18'58.000" N
65°53'24.000" W
108.80 m
8104901
71609
YSJ

Download Data

Hourly Data (November 2019)
Hourly Data Report for November 18, 2019
TIME
LST
Temp Definition
°C
Dew Point Definition
°C
Rel Hum Definition
%
Precip. Amount Definition
mm

Wind Dir Definition
10's deg

Wind Spd Definition
km/h
Visibility Definition
km
Stn Press Definition
kPa
Hmdx Definition


Wind Chill Definition


Weather Definition


00:00 -6.2 -7.3 92   5 3 24.1 101.30   -8 LegendNANA
01:00 -7.5 -8.3 94   6 3 24.1 101.21   -9 LegendNANA
02:00 -6.0 -7.1 92   3 5 24.1 101.13   -8 Mostly Cloudy
03:00 -4.8 -6.4 89   5 9 24.1 101.02   -9 LegendNANA
04:00 -4.9 -6.1 91   4 9 24.1 100.93   -9 LegendNANA
05:00 -3.3 -4.0 94   4 9 24.1 100.90   -7 Mostly Cloudy
06:00 -2.2 -3.0 94   3 9 24.1 100.87   -6 LegendNANA
07:00 -0.6 -1.4 94   6 15 24.1 100.78   -5 LegendNANA
08:00 -0.2 -1.3 92   6 13 24.1 100.72   -4 Cloudy
09:00 1.1 -0.6 89   7 17 24.1 100.67     LegendNANA
10:00 2.3 0.1 86   7 18 24.1 100.57     LegendNANA
11:00 3.4 0.5 81   7 21 24.1 100.46     Cloudy
12:00 4.0 0.4 77   8 24 24.1 100.32     LegendNANA
13:00 4.0 0.4 77   8 30 24.1 100.25     LegendNANA
14:00 4.0 0.0 75   7 25 24.1 100.08     Cloudy
15:00 4.4 -0.8 69   5 20 24.1 99.99     LegendNANA
16:00 2.9 0.7 85   3 18 16.1 99.90     Rain
17:00 2.1 1.1 93   2 19 8.1 99.78     Rain,Fog
18:00 2.1 1.4 95   3 24 8.1 99.62     Rain,Fog
19:00 2.3 1.7 96   3 28 8.1 99.50     Rain,Fog
20:00 2.0 1.3 95   3 30 6.4 99.32     Rain,Fog
21:00 1.8 1.1 95   3 22 4.8 99.14     Rain,Fog
22:00 1.7 0.9 94   5 23 4.8 99.10     Rain,Fog
23:00 1.8 1.3 96   2 27 4.8 99.03     Moderate Rain,Fog

Notes on Data Quality.

Legend

  • E = Estimated
  • M = Missing
  • NA = Not Available*
  • [empty] = Indicates an unobserved value
Date modified: